Location: Mitty Observatory
(35.9148°N, 88.8847°W)
Time: 18:51:36
(UTC-05:00)

Envisat - Visible Passes

Search period start: 17 October 2019 00:00
Search period end: 27 October 2019 00:00
Orbit: 764 x 766 km, 98.1° (Epoch: 17 October)

Date Brightness Start Highest point End Pass type
(mag) Time Alt. Az. Time Alt. Az. Time Alt. Az.
17 Oct 6.5 06:32:28 10° ENE 06:34:41 13° E 06:36:53 10° ESE visible
17 Oct 3.5 19:20:36 10° S 19:25:37 63° W 19:30:40 10° NNW visible
18 Oct 3.1 18:43:58 10° SSE 18:48:54 55° ENE 18:53:52 10° N visible
18 Oct 6.0 20:25:30 10° SW 20:28:13 14° W 20:30:56 10° WNW visible
19 Oct 4.7 19:46:37 10° SSW 19:51:11 34° W 19:55:48 10° NNW visible
20 Oct 3.1 19:09:17 10° S 19:14:21 82° WSW 19:19:27 10° NNW visible
21 Oct 3.4 18:32:56 10° SE 18:37:41 43° ENE 18:42:28 10° N visible
21 Oct 5.7 20:13:20 10° SW 20:16:52 19° W 20:20:23 10° NW visible
22 Oct 4.2 19:35:04 10° S 19:39:53 44° W 19:44:44 10° NNW visible
23 Oct 2.9 18:58:02 10° SSE 19:03:06 79° ENE 19:08:11 10° N visible
24 Oct 5.3 20:01:27 10° SSW 20:05:30 24° W 20:09:35 10° NW visible
25 Oct 6.3 06:35:02 10° ENE 06:37:42 14° E 06:40:22 10° SE visible
25 Oct 3.7 19:23:37 10° S 19:28:36 57° W 19:33:36 10° NNW visible
26 Oct 3.0 18:46:53 10° SSE 18:51:52 61° ENE 18:56:52 10° N visible
26 Oct 6.1 20:28:58 10° WSW 20:31:14 13° W 20:33:31 10° WNW visible
